User: anonymous   Login
Location: Unspecified
(0.0000°N, 0.0000°E)
Time: 09:00:37
(UTC+00:00)
Language:

TBA - TO BE ASSIGNED - Orbit

View from above orbital plane
View from above orbital plane
View from above satellite
View from above satellite

Ground track
Ground track

The orbit is defined by the following mean orbital elements,

1 68831U          26143.06778800 +.00000000 +00000-0 +85958-3 0 00009
2 68831  55.0028 131.4537 0011288   4.5204 355.5916 15.19252245    07
Epoch (UTC): 23 May 2026 01:37:36
Eccentricity: 0.0011288
inclination: 55.0028°
perigee height: 500 km
apogee height: 516 km
right ascension of ascending node: 131.4537°
argument of perigee: 4.5204°
revolutions per day: 15.19252245
mean anomaly at epoch: 355.5916°

The dashed part of the orbit path shows where the satellite is in the earth's shadow,  

DLR